Skip Page Navigation
NASA JPL Caltech
NASA Logo - Jet Propulsion Laboratory + View the NASA Portal
+ Near-Earth Object (NEO) Program
Search JPL
JPL Home Earth Solar System Stars & Galaxies Technology
JPL Solar System Dynamics
BODIES ORBITS EPHEMERIDES TOOLS PHYSICAL DATA DISCOVERY FAQ SITE MAP
JPL Small-Body Database Browser
Search: [ help ]  
37682 (1995 GZ6)
Classification: Main-belt Asteroid          SPK-ID: 2037682
Ephemeris | Orbit Diagram | Orbital Elements | Physical Parameters | Discovery Circumstances ]

[ show orbit diagram ]
Orbital Elements at Epoch 2457000.5 (2014-Dec-09.0) TDB
Reference: JPL 7 (heliocentric ecliptic J2000)
 Element Value Uncertainty (1-sigma)   Units 
e .1710631165855521 6.5505e-08  
a 2.305122605375218 1.8359e-08 AU
q 1.910801148387926 1.4622e-07 AU
i 6.253758963572322 6.5791e-06 deg
node 126.6025815188381 5.7265e-05 deg
peri 147.5866915891869 6.1324e-05 deg
M 146.4999702620358 2.7749e-05 deg
tp 2456480.295017930871
(2013-Jul-06.79501793)
9.5803e-05 JED
period 1278.319669348198
3.50
1.5271e-05
4.181e-08
d
yr
n .2816196986029012 3.3643e-09 deg/d
Q 2.699444062362511 2.1499e-08 AU
  Orbit Determination Parameters
   # obs. used (total)      650  
   data-arc span      7263 days (19.89 yr)  
   first obs. used      1995-03-27  
   last obs. used      2015-02-13  
   planetary ephem.      DE431  
   SB-pert. ephem.      SB431-BIG16  
   condition code      0  
   fit RMS      .48529  
   data source      ORB  
   producer      Otto Matic  
   solution date      2015-Mar-09 15:56:38  

Additional Information
 Earth MOID = .899258 AU 
 T_jup = 3.561 
[ show covariance matrix ]

Ephemeris | Orbit Diagram | Orbital Elements | Physical Parameters | Discovery Circumstances ]

Physical Parameter Table
Parameter Symbol Value Units Sigma Reference Notes
absolute magnitude H 15.1 mag n/a MPO324649  

37682 (1995 GZ6)          Discovered 1995-Apr-04 by BAO Schmidt CCD Asteroid Program at Xinglong
Reference: 20020328/Numbers.arcLast Updated: 2004-04-19

Alternate Designations
 1995 GZ6 = 1999 LW27 = 2000 RF61 
Ephemeris | Orbit Diagram | Orbital Elements | Physical Parameters | Discovery Circumstances ]
ABOUT SSD CREDITS/AWARDS PRIVACY/COPYRIGHT GLOSSARY LINKS
FirstGov 2015-Apr-02 04:25 UT
(server date/time)  
NASA Home Page
Site Manager:   Ryan S. Park
Webmaster  Alan B. Chamberlin